Date,TemperatureHighF,TemperatureAvgF,TemperatureLowF,DewpointHighF,DewpointAvgF,DewpointLowF,HumidityHigh,HumidityAvg,HumidityLow,PressureMaxIn,PressureMinIn,WindSpeedMaxMPH,WindSpeedAvgMPH,GustSpeedMaxMPH,PrecipitationSumIn
2013-1-1,15,2,-15,4,-6,-18,85,70,44,0.00,40.00,12,-80,22,0.00
2013-1-2,23,18,13,13,10,6,93,71,53,0.00,40.00,7,4,12,0.00
2013-1-3,23,18,9,19,14,6,91,86,81,0.00,40.00,7,5,18,0.00
2013-1-4,32,18,7,16,11,5,95,76,48,0.00,40.00,12,6,17,0.00
2013-1-5,37,21,3,24,14,1,94,77,42,0.00,40.00,10,5,16,0.00
2013-1-6,29,21,5,22,16,3,94,82,68,0.00,40.00,7,4,16,0.00
2013-1-7,39,21,5,24,15,3,98,80,49,0.00,40.00,12,5,21,0.00
2013-1-8,40,27,9,31,22,8,98,81,56,0.00,40.00,14,4,21,0.00
2013-1-9,42,36,27,31,27,21,95,72,46,0.00,40.00,16,10,29,0.00
2013-1-10,44,34,24,43,29,23,99,83,42,0.00,40.00,9,4,14,0.00
2013-1-11,49,46,43,48,45,43,99,99,99,0.00,40.00,8,4,14,0.00
2013-1-12,50,41,33,50,32,23,99,74,61,0.00,40.00,21,11,34,0.00
2013-1-13,33,32,29,24,23,20,74,70,65,0.00,40.00,10,6,19,0.00
2013-1-14,35,31,28,27,24,22,90,78,62,0.00,40.00,10,4,17,0.00
2013-1-15,42,35,28,31,25,19,91,69,40,0.00,40.00,11,5,21,0.00
2013-1-16,42,39,35,38,29,15,86,70,41,0.00,40.00,12,8,21,0.00
2013-1-17,36,33,31,27,18,12,87,55,42,0.00,40.00,11,5,18,0.00
2013-1-18,50,41,31,42,34,27,92,79,54,0.00,40.00,12,6,21,0.00
2013-1-19,50,42,31,44,34,16,97,75,46,0.00,40.00,29,9,53,0.00
2013-1-20,33,31,29,20,17,13,67,58,45,0.00,40.00,13,7,31,0.00
2013-5-16,-200,0,200,-100,-100,-100,24,24,22,0.00,40.00,9,6,15,0.00
2013-5-20,76,66,61,59,57,52,93,76,44,0.00,40.00,5,2,17,0.00
2013-5-21,72,65,57,63,58,52,97,80,54,0.00,40.00,11,-5,21,0.00
2013-5-22,61,56,51,60,55,50,97,96,93,0.00,40.00,16,5,26,0.00
2013-5-23,62,52,44,50,38,28,96,64,29,0.00,40.00,17,12,28,0.00
2013-5-24,66,50,33,45,33,26,97,58,23,0.00,40.00,7,2,12,0.00
2013-5-25,65,56,49,45,38,33,86,55,30,0.00,40.00,9,5,17,0.00
2013-5-26,65,55,43,46,37,34,86,55,32,0.00,40.00,10,5,19,0.00
2013-5-27,59,56,52,53,45,37,97,69,51,0.00,40.00,13,7,22,0.00
2013-5-28,66,57,51,65,56,51,97,97,96,0.00,40.00,9,-37,13,0.00
2013-5-29,76,68,65,70,66,64,97,96,80,0.00,40.00,12,2,21,0.00
2013-5-30,83,75,69,74,71,68,96,87,62,0.00,40.00,14,7,22,0.00
2013-5-31,82,74,68,69,64,56,94,73,42,0.00,40.00,14,9,26,0.00
2013-6-1,78,70,62,67,60,-100,96,77,41,0.00,40.00,12,5,21,0.00
2013-6-2,66,60,56,59,49,42,96,68,42,0.00,40.00,13,7,21,0.00
2013-6-3,76,64,52,60,49,39,98,65,29,0.00,40.00,6,2,13,0.00
2013-6-4,65,62,61,62,58,53,97,88,68,0.00,40.00,7,5,13,0.00
2013-6-5,65,61,60,62,60,59,97,95,79,0.00,40.00,8,5,19,0.00
2013-6-6,62,61,60,61,60,57,97,95,88,0.00,40.00,7,5,15,0.00
2013-6-7,76,68,60,63,54,47,96,64,36,0.00,40.00,8,3,13,0.00
2013-6-8,73,67,62,65,57,48,97,73,41,0.00,40.00,9,-99,17,0.00
2013-6-9,78,70,62,70,63,55,96,80,56,0.00,40.00,14,6,22,0.00
2013-6-10,78,68,64,68,66,63,96,93,63,0.00,40.00,6,3,7,0.00
2013-6-12,76,67,62,64,61,58,96,82,56,0.00,40.00,13,5,21,0.00
2013-6-13,76,66,57,60,54,48,96,70,39,0.00,40.00,12,7,21,0.00
2013-6-14,78,71,58,57,49,44,88,48,33,0.00,40.00,8,4,14,0.00
2013-6-15,80,68,61,66,63,57,97,85,62,0.00,40.00,14,5,26,0.00
2013-6-16,80,68,54,60,53,44,97,66,28,0.00,40.00,9,4,17,0.00
2013-6-17,78,64,52,61,55,51,96,75,39,0.00,40.00,11,4,26,0.00
2013-6-18,74,63,53,59,47,37,94,60,32,0.00,40.00,9,5,17,0.00
2013-6-19,78,64,47,59,49,42,97,63,36,0.00,40.00,6,2,12,0.00
2013-6-20,84,68,56,58,56,51,96,71,35,0.00,40.00,16,5,21,0.00
2013-6-22,81,74,67,70,67,62,96,78,52,0.00,40.00,13,6,24,0.00
2013-6-23,82,74,65,70,65,62,96,77,54,0.00,40.00,14,8,29,0.00
2013-6-24,80,72,61,73,67,60,97,87,69,0.00,40.00,9,3,17,0.00
2013-6-25,82,73,64,70,66,63,97,82,60,0.00,40.00,9,3,13,0.00
2013-6-26,85,73,68,72,70,67,97,91,62,0.00,40.00,7,3,14,0.00
2013-6-27,85,74,62,72,62,54,97,72,37,0.00,40.00,13,4,27,0.00
2013-6-28,72,67,62,69,61,54,96,82,63,0.00,40.00,11,5,17,0.00
2013-6-29,72,65,60,64,59,52,97,83,57,0.00,40.00,13,8,23,0.00
2013-6-30,81,68,53,56,48,42,95,56,25,0.00,40.00,12,7,17,0.00
2013-7-1,84,69,52,59,51,46,97,61,30,0.00,40.00,7,3,14,0.00
2013-7-2,78,67,55,57,51,45,94,62,32,0.00,40.00,9,5,18,0.00
2013-7-8,85,75,70,72,70,68,95,85,57,0.00,40.00,3,1,6,0.00
2013-7-9,85,75,66,74,69,65,96,84,57,0.00,40.00,14,4,22,0.00
2013-7-10,76,69,57,70,53,-100,96,63,39,0.00,40.00,12,6,22,0.00
2013-7-11,83,69,55,62,55,49,98,68,32,0.00,40.00,4,1,9,0.00
2013-7-12,83,70,56,63,55,50,97,65,33,0.00,40.00,12,4,18,0.00
2013-7-13,80,71,60,65,59,54,95,70,40,0.00,40.00,10,3,16,0.00
2013-7-14,87,74,57,67,61,56,96,69,39,0.00,40.00,6,3,16,0.00
2013-7-15,89,76,64,74,67,63,96,76,48,0.00,40.00,9,2,14,0.00
2013-7-16,91,80,71,78,72,67,96,78,47,0.00,40.00,9,4,14,0.00
2013-7-17,92,81,68,76,69,63,97,72,38,0.00,40.00,9,3,16,0.00
2013-7-18,91,79,69,73,68,65,96,72,42,0.00,40.00,14,5,26,0.00
2013-7-19,88,80,67,72,64,56,90,60,37,0.00,40.00,14,7,22,0.00
2013-7-20,84,70,59,63,56,-100,96,68,34,0.00,40.00,9,3,12,0.00
2013-7-21,69,64,60,64,60,54,97,86,67,0.00,40.00,8,4,14,0.00
2013-7-22,85,70,60,71,64,59,97,83,56,0.00,40.00,14,5,22,0.00
2013-7-23,73,65,55,66,52,47,93,65,40,0.00,40.00,16,8,24,0.00
2013-7-24,77,61,47,59,48,43,97,70,31,0.00,40.00,5,2,11,0.00
2013-7-25,81,65,52,65,58,51,97,83,48,0.00,40.00,11,-33,17,0.00
2013-7-26,73,64,54,67,58,46,97,83,42,0.00,40.00,11,6,23,0.00
2013-7-27,57,52,47,50,46,43,94,80,67,0.00,40.00,9,6,20,0.00
2013-7-28,66,57,48,53,50,47,97,80,54,0.00,40.00,13,6,22,0.00
2013-7-29,77,64,49,56,51,47,96,67,38,0.00,40.00,8,3,13,0.00
2013-7-30,78,66,54,64,57,53,96,77,48,0.00,40.00,5,2,10,0.00
2013-7-31,71,64,60,66,62,59,96,93,75,0.00,40.00,5,2,11,0.00
2013-8-2,76,71,57,57,50,45,94,52,35,0.00,40.00,9,5,17,0.00
2013-8-3,75,63,49,60,47,40,98,63,32,0.00,40.00,9,4,18,0.00
2013-8-4,76,62,46,58,48,42,97,67,32,0.00,40.00,6,2,9,0.00
2013-8-5,70,62,50,63,58,49,97,88,71,0.00,40.00,9,4,15,0.00
2013-8-6,83,72,63,67,60,50,97,71,34,0.00,40.00,9,4,16,0.00
2013-8-7,74,62,58,63,59,57,98,92,56,0.00,40.00,7,4,16,0.00
2013-8-8,78,69,52,60,49,41,97,55,29,0.00,40.00,6,2,11,0.00
2013-8-9,76,66,57,62,53,45,97,67,35,0.00,40.00,7,4,17,0.00
2013-8-10,74,64,53,58,53,47,96,70,39,0.00,40.00,6,2,12,0.00
2013-8-11,72,61,53,65,58,52,97,90,62,0.00,40.00,4,2,8,0.00
2013-8-12,79,65,55,69,55,47,97,76,33,0.00,40.00,9,4,19,0.00
2013-8-13,71,58,44,54,43,-100,97,66,33,0.00,40.00,11,5,17,0.00
2013-8-14,74,59,42,56,43,-100,98,67,31,0.00,40.00,6,2,13,0.00
2013-8-15,78,60,51,58,42,-100,97,65,27,0.00,40.00,9,3,14,0.00
2013-8-16,81,64,47,58,46,-100,97,65,28,0.00,40.00,5,1,11,0.00
2013-8-17,83,64,49,63,49,-100,97,68,29,0.00,40.00,4,1,9,0.00
2013-8-18,81,66,49,60,53,48,97,69,33,0.00,40.00,9,3,16,0.00
2013-8-19,82,64,50,63,52,-100,97,74,41,0.00,40.00,10,4,21,0.00
2013-8-20,86,73,58,71,63,57,97,74,44,0.00,40.00,15,5,22,0.00
2013-8-21,88,77,64,71,67,63,96,74,50,0.00,40.00,14,7,27,0.00
2013-8-22,85,70,60,65,58,45,97,75,26,0.00,40.00,8,2,15,0.00
2013-8-23,86,69,55,60,54,49,96,65,31,0.00,40.00,8,3,13,0.00
2013-8-24,85,70,56,68,56,-100,96,67,35,0.00,40.00,9,4,18,0.00
2013-8-25,92,81,71,72,69,67,92,69,44,0.00,40.00,14,8,24,0.00
2013-8-26,92,81,69,76,70,66,94,72,49,0.00,40.00,15,6,23,0.00
2013-8-27,94,81,72,76,71,67,96,77,41,0.00,40.00,7,3,13,0.00
2013-8-28,90,83,74,69,65,62,80,57,39,0.00,40.00,6,4,12,0.00
2013-8-29,89,77,63,72,67,62,97,75,47,0.00,40.00,10,4,17,0.00
2013-8-30,86,77,69,75,68,61,96,75,44,0.00,40.00,11,6,17,0.00
2013-8-31,85,69,56,64,58,-100,97,74,36,0.00,40.00,6,3,13,0.00
2013-9-1,79,71,63,70,60,52,96,72,41,0.00,40.00,13,5,22,0.00
2013-9-2,71,61,48,59,50,43,96,70,38,0.00,40.00,9,6,17,0.00
2013-9-3,76,57,39,55,44,39,99,68,29,0.00,40.00,9,3,15,0.00
2013-9-4,85,69,46,62,55,46,97,66,39,0.00,40.00,9,4,14,0.00
2013-9-5,80,66,58,59,51,41,96,63,27,0.00,40.00,9,4,14,0.00
2013-9-6,88,71,54,65,55,47,92,63,36,0.00,40.00,14,5,24,0.00
2013-9-7,92,76,66,69,62,-100,93,66,35,0.00,40.00,10,4,26,0.00
2013-9-8,76,68,58,69,57,49,96,70,42,0.00,40.00,12,7,21,0.00
2013-9-9,91,75,63,71,66,62,96,75,48,0.00,40.00,14,6,22,0.00
2013-9-10,89,78,69,69,64,59,96,65,41,0.00,40.00,10,5,16,0.00
2013-9-11,85,72,57,68,59,49,96,71,30,0.00,40.00,9,4,21,0.00
2013-9-12,70,60,50,54,47,38,96,67,34,0.00,40.00,12,6,24,0.00
2013-9-13,69,51,36,45,36,29,98,67,23,0.00,40.00,6,2,13,0.00
2013-9-14,73,55,35,53,37,-100,99,61,27,0.00,40.00,10,4,20,0.00
2013-9-15,68,58,52,54,51,43,97,82,51,0.00,40.00,12,6,26,0.00
2013-9-16,65,50,35,44,37,30,98,68,27,0.00,40.00,10,4,15,0.00
2013-9-17,66,54,35,56,46,35,98,77,41,0.00,40.00,10,4,16,0.00
2013-9-18,68,59,57,65,58,56,97,96,90,0.00,40.00,6,3,11,0.00
2013-9-19,83,73,66,73,67,65,97,86,57,0.00,40.00,14,5,23,0.00
2013-9-20,67,61,52,66,58,50,97,89,63,0.00,40.00,12,6,22,0.00
2013-9-21,60,50,42,50,41,-100,98,77,47,0.00,40.00,10,4,22,0.00
2013-9-22,65,50,35,44,38,34,98,68,33,0.00,40.00,7,3,11,0.00
2013-9-23,69,55,42,50,45,41,97,73,41,0.00,40.00,7,4,18,0.00
2013-9-24,74,57,43,53,46,42,98,74,32,0.00,40.00,7,3,11,0.00
2013-9-25,70,55,41,53,45,40,98,75,38,0.00,40.00,8,3,15,0.00
2013-9-26,75,58,41,57,47,40,98,74,33,0.00,40.00,11,4,16,0.00
2013-9-27,81,66,50,53,49,43,95,60,30,0.00,40.00,9,5,22,0.00
2013-9-28,78,61,50,65,52,-100,97,76,45,0.00,40.00,14,7,31,0.00
2013-9-29,71,55,39,55,43,38,98,73,31,0.00,40.00,9,4,18,0.00
2013-9-30,73,57,45,49,43,37,96,67,28,0.00,40.00,18,7,32,0.00
2013-10-1,56,56,56,38,38,38,51,51,51,0.00,40.00,0,0,2,0.00
2013-10-2,76,57,35,45,36,31,99,58,19,0.00,40.00,6,2,16,0.00
2013-10-3,69,60,53,60,51,38,96,74,43,0.00,40.00,11,6,16,0.00
2013-10-4,57,56,55,56,55,54,97,96,93,0.00,40.00,12,7,19,0.00
2013-10-5,65,60,56,64,59,55,98,97,97,0.00,40.00,12,7,22,0.00
2013-10-6,57,49,39,56,40,32,97,76,39,0.00,40.00,7,3,13,0.00
2013-10-7,64,50,39,47,41,33,96,77,32,0.00,40.00,10,4,19,0.00
2013-10-8,74,54,36,50,39,34,98,67,24,0.00,40.00,16,4,26,0.00
2013-10-9,74,60,46,48,45,42,96,62,32,0.00,40.00,11,4,19,0.00
2013-10-10,74,56,39,53,44,39,98,70,30,0.00,40.00,9,3,15,0.00
2013-10-11,75,61,47,54,51,46,96,72,42,0.00,40.00,14,6,29,0.00
2013-10-12,64,58,48,57,44,-100,89,63,39,0.00,40.00,13,7,26,0.00
2013-10-13,60,47,33,43,35,27,99,70,30,0.00,40.00,10,4,20,0.00
2013-10-14,59,45,29,42,34,29,99,71,35,0.00,40.00,11,4,19,0.00
2013-10-15,56,51,47,55,48,41,97,91,75,0.00,40.00,10,6,21,0.00
2013-10-16,50,47,38,47,43,36,98,87,70,0.00,40.00,8,4,15,0.00
2013-10-17,55,40,31,48,35,30,98,84,39,0.00,40.00,7,2,17,0.00
2013-10-18,45,42,33,44,39,32,97,90,62,0.00,40.00,10,4,20,0.00
2013-10-19,51,36,27,41,31,-100,99,87,39,0.00,40.00,11,3,17,0.00
2013-10-20,44,37,31,43,37,31,99,99,94,0.00,40.00,14,4,24,0.00
2013-10-21,42,36,32,40,25,15,94,69,42,0.00,40.00,13,9,23,0.00
2013-10-22,45,36,25,29,23,20,95,64,38,0.00,40.00,9,5,15,0.00
2013-10-23,38,32,24,29,25,21,96,76,56,0.00,40.00,9,4,16,0.00
2013-10-24,42,35,32,31,25,21,92,67,44,0.00,40.00,9,4,22,0.00
2013-10-25,50,40,31,31,27,21,92,63,38,0.00,40.00,16,7,29,0.00
2013-10-26,51,45,40,35,27,-100,66,52,42,0.00,40.00,16,8,29,0.00
2013-10-27,55,40,27,33,27,23,98,66,28,0.00,40.00,14,6,22,0.00
2013-10-28,44,35,27,32,23,-100,87,65,37,0.00,40.00,13,7,19,0.00
2013-10-29,44,35,24,40,30,21,96,82,70,0.00,40.00,9,5,15,0.00
2013-10-30,53,47,40,52,46,40,98,96,93,0.00,40.00,6,4,18,0.00
2013-10-31,55,50,41,54,49,41,98,98,98,0.00,40.00,11,5,22,0.00
2013-11-1,46,42,38,42,39,36,98,90,73,0.00,40.00,12,6,24,0.00